Regional Weather Roundup
Issued by NWS Cleveland, OH

Home | Current Version | Previous Version | Graphics & Text | Print | Product List | Glossary On
Versions: 1 2 3 4 5 6 7 8 9 10 11 12 13 14 15 16 17 18 19 20 21 22 23 24 25 26 27 28 29 30 31 32 33 34 35 36 37 38 39 40 41 42 43 44 45 46 47 48 49 50
000
ASUS41 KCLE 240302
RWRCLE
OHIO REGIONAL WEATHER ROUNDUP
NATIONAL WEATHER SERVICE CLEVELAND, OH
1100 PM EDT SUN JUL 23 2017

NOTE: "FAIR" INDICATES FEW OR NO CLOUDS BELOW 12,000 FEET WITH NO
SIGNIFICANT WEATHER AND/OR OBSTRUCTIONS TO VISIBILITY.

OHZ001>008-015>018-024>027-034-035-043-044-240400-
   NORTHWEST OHIO

CITY           SKY/WX    TMP DP  RH WIND       PRES   REMARKS
DEFIANCE       PTCLDY   N/A N/A N/A CALM      29.79R
FINDLAY        CLEAR     69  64  84 S3        29.78F
TOLEDO EXPRESS PTCLDY    69  69 100 CALM      29.78R
TOLEDO EXEC    CLEAR     71  69  93 SW5       29.79R
LIMA           CLEAR     69  67  93 S7        29.80F
$$

OHZ009>014-019>023-028>033-038-089-240400-
   NORTHEAST OHIO

CITY           SKY/WX    TMP DP  RH WIND       PRES   REMARKS
CLE-HOPKINS    CLOUDY    75  67  76 SW7       29.80R
CLE-LAKEFRONT  CLOUDY    76  69  79 W8        29.76S
CUY CO. ARPT   PTCLDY    73  68  83 CALM      29.78F
LORAIN-ELYRIA  PTCLDY    68  62  81 W3        29.80R
ASHTABULA      CLOUDY    71  69  93 CALM      29.77F
AKRON-CANTON   CLOUDY    72  67  84 W7        29.80S
WOOSTER        PTCLDY    67  66  97 SW3       29.81R
MANSFIELD      MOCLDY    67  66  97 SW7       29.82R
YOUNGSTOWN     CLOUDY    72  69  90 SW5       29.79R
$$

OHZ042-051>053-060>062-070>072-077>081-240400-
  SOUTHWEST OHIO

CITY           SKY/WX    TMP DP  RH WIND       PRES   REMARKS
CINC-COVINGTON CLEAR     73  70  90 W7        29.85S
CINC-LUNKEN    CLEAR     76  70  82 W5        29.84R
HAMILTON       CLEAR     74  71  91 SW6       29.84S
DAYTON         CLEAR     70  65  84 S6        29.82F
WRIGHT-PAT AFB PTCLDY    68  68  99 E6        29.82F
DAYTON GENERAL CLEAR     72  68  87 CALM      29.83S
WILMINGTON     CLEAR     73  70  90 W3        29.84R
$$

OHZ036-037-039>041-045>050-054>059-063>069-073>076-082>088-240400-
  CENTRAL AND SOUTHEAST OHIO

CITY           SKY/WX    TMP DP  RH WIND       PRES   REMARKS
COLUMBUS       PTCLDY    70  70 100 CALM      29.82R
OSU AIRPORT    PTCLDY    69  69 100 S3        29.81S
BOLTON FIELD   PTCLDY    68  68 100 S3        29.83S FOG
RICKENBACK AFB CLEAR     68  68 100 CALM      29.83R
NEWARK         CLOUDY    69  67  93 S3        29.82R
MARION         PTCLDY    68  66  93 S5        29.82R
LANCASTER      CLEAR     66  66 100 S3        29.83S
ZANESVILLE     CLOUDY    68  66  93 SW8       29.82F
NEW PHILLY     NOT AVBL
$$




USA.gov is the U.S. government's official web portal to all federal, state and local government web resources and services.